EDW286P LSZH-EGHQ

Flight info

Callsign EDW286P
Flight time 1h 39m
Altitude 34000
Route VEBIT T10 TORPA DCT REKLA DCT RLP DCT ROTSI DCT AMODO DCT COHPA UM729 RESMI UN491 LGL UN502 JSY DCT LIZAD DCT LND
Aircraft A320/M-SDE2E3FGHIJ1RWXY/LB1

Departure

Time 2026-04-26 13:11
Airport Zürich Airport (LSZH)

Arrival

Time 2026-04-26 14:50
Airport Cornwall Airport Newquay (EGHQ)
Time Latitude Longitude Altitude Speed Heading
2026-04-26 12:27 47.46069 8.55170 1394 ft 0 kts 65°
2026-04-26 13:00 47.46062 8.55149 1404 ft 4 kts 65°
2026-04-26 13:00 47.46051 8.55112 1402 ft 4 kts 70°
2026-04-26 13:00 47.46044 8.55079 1396 ft 4 kts 90°
2026-04-26 13:00 47.46052 8.55053 1399 ft 4 kts 162°
2026-04-26 13:01 47.46078 8.55045 1398 ft 4 kts 160°
2026-04-26 13:01 47.46084 8.55041 1396 ft 0 kts 155°
2026-04-26 13:05 47.46078 8.55045 1400 ft 3 kts 154°
2026-04-26 13:05 47.46051 8.55065 1402 ft 7 kts 154°
2026-04-26 13:05 47.46005 8.55097 1395 ft 6 kts 154°
2026-04-26 13:05 47.45975 8.55118 1394 ft 5 kts 154°
2026-04-26 13:06 47.45922 8.55154 1400 ft 11 kts 153°
2026-04-26 13:06 47.45894 8.55241 1405 ft 12 kts 90°
2026-04-26 13:06 47.45884 8.55377 1400 ft 14 kts 97°
2026-04-26 13:06 47.45873 8.55526 1403 ft 15 kts 95°
2026-04-26 13:07 47.45863 8.55673 1409 ft 15 kts 96°
2026-04-26 13:07 47.45852 8.55838 1408 ft 16 kts 96°
2026-04-26 13:07 47.45840 8.56001 1411 ft 16 kts 96°
2026-04-26 13:07 47.45829 8.56160 1416 ft 15 kts 96°
2026-04-26 13:08 47.45817 8.56313 1418 ft 15 kts 96°
2026-04-26 13:08 47.45807 8.56464 1417 ft 15 kts 96°
2026-04-26 13:08 47.45796 8.56619 1419 ft 15 kts 96°
2026-04-26 13:08 47.45785 8.56772 1420 ft 15 kts 96°
2026-04-26 13:09 47.45776 8.56905 1423 ft 10 kts 95°
2026-04-26 13:09 47.45763 8.57001 1425 ft 9 kts 115°
2026-04-26 13:09 47.45715 8.57037 1425 ft 8 kts 185°
2026-04-26 13:09 47.45665 8.57025 1425 ft 6 kts 204°
2026-04-26 13:10 47.45661 8.56993 1424 ft 0 kts 275°
2026-04-26 13:10 47.45662 8.56988 1424 ft 3 kts 275°
2026-04-26 13:10 47.45685 8.56694 1418 ft 68 kts 276°
2026-04-26 13:11 47.45758 8.55668 1405 ft 133 kts 276°
2026-04-26 13:11 47.45871 8.54066 1534 ft 168 kts 277°
2026-04-26 13:11 47.45990 8.52367 2229 ft 167 kts 279°
2026-04-26 13:11 47.46116 8.50663 2877 ft 171 kts 282°
2026-04-26 13:12 47.46249 8.48812 3179 ft 191 kts 275°
2026-04-26 13:12 47.45866 8.46882 3552 ft 205 kts 232°
2026-04-26 13:12 47.44762 8.45448 3899 ft 219 kts 218°
2026-04-26 13:12 47.43567 8.43891 4258 ft 241 kts 226°
2026-04-26 13:13 47.42438 8.41896 4493 ft 264 kts 233°
2026-04-26 13:13 47.41320 8.39656 4756 ft 279 kts 234°
2026-04-26 13:13 47.40190 8.37314 4938 ft 280 kts 234°
2026-04-26 13:13 47.39066 8.34983 4988 ft 279 kts 234°
2026-04-26 13:14 47.38150 8.32461 4994 ft 276 kts 246°
2026-04-26 13:14 47.37317 8.29877 4994 ft 279 kts 245°
2026-04-26 13:14 47.36436 8.27343 4983 ft 279 kts 243°
2026-04-26 13:14 47.35520 8.24785 4992 ft 284 kts 242°
2026-04-26 13:15 47.34588 8.22211 4987 ft 283 kts 243°
2026-04-26 13:15 47.33668 8.19663 4987 ft 281 kts 242°
2026-04-26 13:15 47.32743 8.17086 5268 ft 287 kts 242°
2026-04-26 13:15 47.32130 8.15374 5979 ft 285 kts 242°
2026-04-26 13:16 47.30896 8.11921 7267 ft 284 kts 242°
2026-04-26 13:16 47.29985 8.09359 8137 ft 285 kts 242°
2026-04-26 13:16 47.29060 8.06758 9001 ft 287 kts 242°
2026-04-26 13:16 47.28126 8.04138 9846 ft 289 kts 242°
2026-04-26 13:17 47.27114 7.98428 11140 ft 302 kts 270°
2026-04-26 13:17 47.27344 7.95237 11307 ft 325 kts 278°
2026-04-26 13:18 47.28024 7.88413 12518 ft 340 kts 278°
2026-04-26 13:18 47.28360 7.84995 13189 ft 344 kts 278°
2026-04-26 13:18 47.29038 7.77949 14553 ft 349 kts 278°
2026-04-26 13:19 47.29373 7.74400 15199 ft 351 kts 278°
2026-04-26 13:19 47.29708 7.70830 15859 ft 352 kts 278°
2026-04-26 13:19 47.30045 7.67226 16459 ft 355 kts 278°
2026-04-26 13:19 47.30396 7.63654 17093 ft 357 kts 281°
2026-04-26 13:20 47.31059 7.60119 17706 ft 359 kts 288°
2026-04-26 13:20 47.31836 7.56586 18260 ft 363 kts 288°
2026-04-26 13:20 47.32620 7.53012 18799 ft 366 kts 288°
2026-04-26 13:20 47.33395 7.49465 19316 ft 369 kts 287°
2026-04-26 13:21 47.34182 7.45841 19812 ft 372 kts 287°
2026-04-26 13:21 47.34705 7.43420 20159 ft 374 kts 287°
2026-04-26 13:21 47.35762 7.38511 20918 ft 377 kts 287°
2026-04-26 13:21 47.36558 7.34811 21442 ft 379 kts 287°
2026-04-26 13:22 47.37361 7.31082 21980 ft 382 kts 287°
2026-04-26 13:22 47.38168 7.27331 22473 ft 384 kts 287°
2026-04-26 13:22 47.38976 7.23564 22946 ft 387 kts 287°
2026-04-26 13:22 47.39777 7.19820 23200 ft 387 kts 287°
2026-04-26 13:23 47.40585 7.16024 23446 ft 388 kts 286°
2026-04-26 13:23 47.41209 7.12139 23692 ft 390 kts 282°
2026-04-26 13:23 47.41785 7.08214 24015 ft 393 kts 282°
2026-04-26 13:23 47.42366 7.04255 24389 ft 395 kts 283°
2026-04-26 13:24 47.42954 7.00262 24765 ft 397 kts 283°
2026-04-26 13:24 47.43541 6.96260 25155 ft 399 kts 283°
2026-04-26 13:24 47.44130 6.92243 25517 ft 401 kts 283°
2026-04-26 13:24 47.44714 6.88245 25882 ft 403 kts 283°
2026-04-26 13:25 47.45303 6.84186 26238 ft 405 kts 283°
2026-04-26 13:25 47.45893 6.80101 26609 ft 407 kts 283°
2026-04-26 13:25 47.46485 6.76001 26936 ft 409 kts 283°
2026-04-26 13:25 47.47077 6.71880 27286 ft 410 kts 283°
2026-04-26 13:26 47.47672 6.67742 27615 ft 412 kts 283°
2026-04-26 13:26 47.48115 6.63533 27909 ft 416 kts 277°
2026-04-26 13:26 47.48415 6.59318 28202 ft 418 kts 277°
2026-04-26 13:26 47.48723 6.55029 28523 ft 420 kts 278°
2026-04-26 13:27 47.49034 6.50713 28826 ft 422 kts 278°
2026-04-26 13:27 47.49347 6.46385 29127 ft 424 kts 278°
2026-04-26 13:27 47.49661 6.42029 29428 ft 425 kts 278°
2026-04-26 13:27 47.49971 6.37717 29714 ft 427 kts 278°
2026-04-26 13:28 47.50282 6.33337 29987 ft 429 kts 278°
2026-04-26 13:28 47.50593 6.28924 30250 ft 430 kts 278°
2026-04-26 13:28 47.50903 6.24496 30459 ft 432 kts 278°
2026-04-26 13:28 47.51210 6.20058 30671 ft 434 kts 278°
2026-04-26 13:29 47.51510 6.15654 30884 ft 435 kts 277°
2026-04-26 13:29 47.51709 6.12699 31020 ft 436 kts 277°
2026-04-26 13:29 47.52111 6.06725 31397 ft 435 kts 277°
2026-04-26 13:29 47.52409 6.02273 31700 ft 433 kts 277°
2026-04-26 13:30 47.52606 5.99338 31899 ft 433 kts 277°
2026-04-26 13:30 47.53003 5.93466 32307 ft 431 kts 278°
2026-04-26 13:30 47.53566 5.89117 32596 ft 428 kts 288°
2026-04-26 13:30 47.54206 5.86370 32785 ft 426 kts 294°
2026-04-26 13:31 47.55559 5.82481 33057 ft 424 kts 303°
2026-04-26 13:31 47.57338 5.78993 33334 ft 423 kts 313°
2026-04-26 13:31 47.59339 5.75797 33614 ft 422 kts 313°
2026-04-26 13:31 47.61341 5.72590 33903 ft 422 kts 313°
2026-04-26 13:32 47.63306 5.69428 34129 ft 421 kts 313°
2026-04-26 13:32 47.67250 5.63053 34199 ft 413 kts 313°
2026-04-26 13:33 47.71102 5.56804 34183 ft 411 kts 312°
2026-04-26 13:33 47.74953 5.50537 34193 ft 410 kts 312°
2026-04-26 13:34 47.78782 5.44306 34195 ft 409 kts 313°
2026-04-26 13:34 47.82618 5.38046 34196 ft 409 kts 313°
2026-04-26 13:35 47.86451 5.31781 34195 ft 409 kts 313°
2026-04-26 13:35 47.90284 5.25507 34210 ft 409 kts 313°
2026-04-26 13:36 47.94089 5.19256 34207 ft 408 kts 313°
2026-04-26 13:36 47.97909 5.12962 34208 ft 408 kts 313°
2026-04-26 13:37 48.01715 5.06676 34199 ft 408 kts 313°
2026-04-26 13:37 48.05491 5.00417 34208 ft 407 kts 313°
2026-04-26 13:38 48.09282 4.94127 34207 ft 406 kts 313°
2026-04-26 13:38 48.13066 4.87850 34216 ft 405 kts 313°
2026-04-26 13:39 48.16825 4.81605 34214 ft 405 kts 313°
2026-04-26 13:39 48.20586 4.75318 34213 ft 405 kts 313°
2026-04-26 13:40 48.24343 4.69014 34200 ft 405 kts 313°
2026-04-26 13:40 48.27332 4.61907 34205 ft 408 kts 294°
2026-04-26 13:41 48.28599 4.53529 34207 ft 413 kts 281°
2026-04-26 13:41 48.29385 4.45015 34211 ft 413 kts 281°
2026-04-26 13:42 48.30169 4.36444 34209 ft 413 kts 281°
2026-04-26 13:42 48.30945 4.27944 34199 ft 413 kts 281°
2026-04-26 13:43 48.31717 4.19363 34202 ft 413 kts 281°
2026-04-26 13:43 48.32479 4.10841 34208 ft 413 kts 281°
2026-04-26 13:44 48.33245 4.02268 34210 ft 413 kts 281°
2026-04-26 13:44 48.34000 3.93687 34212 ft 413 kts 281°
2026-04-26 13:45 48.34738 3.85161 34211 ft 413 kts 281°
2026-04-26 13:45 48.35472 3.76586 34214 ft 413 kts 280°
2026-04-26 13:46 48.36200 3.68042 34223 ft 413 kts 281°
2026-04-26 13:46 48.36931 3.59448 34223 ft 413 kts 280°
2026-04-26 13:47 48.37654 3.50854 34226 ft 413 kts 280°
2026-04-26 13:47 48.38369 3.42316 34218 ft 413 kts 280°
2026-04-26 13:48 48.39082 3.33741 34238 ft 412 kts 280°
2026-04-26 13:48 48.39773 3.25175 34239 ft 412 kts 279°
2026-04-26 13:49 48.40455 3.16627 34235 ft 411 kts 279°
2026-04-26 13:49 48.41138 3.08141 34231 ft 411 kts 279°
2026-04-26 13:50 48.41822 2.99588 34218 ft 410 kts 281°
2026-04-26 13:50 48.43240 2.91336 34232 ft 406 kts 288°
2026-04-26 13:51 48.44814 2.83155 34237 ft 405 kts 288°
2026-04-26 13:51 48.46365 2.75035 34235 ft 405 kts 288°
2026-04-26 13:52 48.47924 2.66852 34230 ft 405 kts 288°
2026-04-26 13:52 48.49462 2.58743 34215 ft 404 kts 287°
2026-04-26 13:53 48.51004 2.50549 34208 ft 405 kts 287°
2026-04-26 13:53 48.52536 2.42401 34220 ft 406 kts 287°
2026-04-26 13:54 48.54072 2.34197 34219 ft 406 kts 287°
2026-04-26 13:54 48.55604 2.25982 34222 ft 406 kts 287°
2026-04-26 13:55 48.57562 2.14966 34220 ft 407 kts 284°
2026-04-26 13:56 48.59461 2.01026 34240 ft 406 kts 283°
2026-04-26 13:56 48.60578 1.92695 34240 ft 406 kts 283°
2026-04-26 13:57 48.61734 1.84352 34229 ft 405 kts 283°
2026-04-26 13:57 48.62894 1.76052 34229 ft 405 kts 283°
2026-04-26 13:58 48.64042 1.67707 34237 ft 405 kts 283°
2026-04-26 13:58 48.65177 1.59358 34242 ft 404 kts 283°
2026-04-26 13:59 48.66297 1.51023 34245 ft 404 kts 283°
2026-04-26 13:59 48.67407 1.42740 34245 ft 403 kts 283°
2026-04-26 14:00 48.69620 1.26063 34234 ft 403 kts 282°
2026-04-26 14:01 48.70714 1.17761 34234 ft 404 kts 282°
2026-04-26 14:01 48.71810 1.09400 34233 ft 404 kts 282°
2026-04-26 14:02 48.72899 1.01084 34232 ft 404 kts 282°
2026-04-26 14:02 48.73987 0.92702 34232 ft 404 kts 282°
2026-04-26 14:03 48.75068 0.84326 34233 ft 404 kts 281°
2026-04-26 14:03 48.76142 0.75993 34228 ft 405 kts 281°
2026-04-26 14:04 48.77222 0.67602 34221 ft 405 kts 281°
2026-04-26 14:04 48.78281 0.59249 34220 ft 405 kts 281°
2026-04-26 14:05 48.79372 0.50853 34223 ft 405 kts 283°
2026-04-26 14:05 48.80810 0.42624 34224 ft 405 kts 285°
2026-04-26 14:06 48.82403 0.34417 34236 ft 404 kts 285°
2026-04-26 14:06 48.83938 0.26193 34246 ft 403 kts 284°
2026-04-26 14:07 48.85396 0.18005 34246 ft 403 kts 283°
2026-04-26 14:07 48.86852 0.09771 34237 ft 403 kts 283°
2026-04-26 14:08 48.88302 0.01582 34234 ft 403 kts 283°
2026-04-26 14:08 48.89757 -0.06665 34202 ft 405 kts 283°
2026-04-26 14:09 48.91219 -0.14972 34204 ft 407 kts 283°
2026-04-26 14:09 48.92670 -0.23266 34207 ft 408 kts 283°
2026-04-26 14:10 48.94121 -0.31635 34212 ft 409 kts 282°
2026-04-26 14:10 48.95529 -0.40032 34212 ft 409 kts 282°
2026-04-26 14:11 48.97626 -0.52621 34218 ft 410 kts 282°
2026-04-26 14:11 48.99039 -0.61044 34219 ft 410 kts 282°
2026-04-26 14:12 49.00432 -0.69422 34217 ft 410 kts 282°
2026-04-26 14:12 49.01827 -0.77864 34216 ft 410 kts 282°
2026-04-26 14:13 49.03904 -0.90531 34215 ft 410 kts 282°
2026-04-26 14:14 49.05278 -0.98933 34209 ft 410 kts 282°
2026-04-26 14:14 49.06654 -1.07397 34214 ft 410 kts 282°
2026-04-26 14:15 49.08017 -1.15854 34237 ft 410 kts 282°
2026-04-26 14:15 49.09378 -1.24303 34241 ft 409 kts 282°
2026-04-26 14:16 49.10745 -1.32701 34243 ft 409 kts 282°
2026-04-26 14:16 49.12111 -1.41148 34227 ft 409 kts 282°
2026-04-26 14:17 49.13456 -1.49535 34220 ft 409 kts 282°
2026-04-26 14:17 49.14807 -1.57978 34218 ft 409 kts 282°
2026-04-26 14:18 49.16151 -1.66458 34221 ft 409 kts 282°
2026-04-26 14:18 49.17473 -1.74887 34221 ft 410 kts 282°
2026-04-26 14:19 49.18581 -1.81937 34226 ft 410 kts 282°
2026-04-26 14:19 49.19908 -1.90407 34231 ft 410 kts 282°
2026-04-26 14:20 49.21233 -1.98919 34234 ft 410 kts 281°
2026-04-26 14:20 49.22546 -2.07370 34228 ft 410 kts 282°
2026-04-26 14:21 49.23988 -2.15838 34227 ft 411 kts 283°
2026-04-26 14:21 49.25479 -2.24270 34229 ft 411 kts 283°
2026-04-26 14:22 49.26948 -2.32699 34225 ft 412 kts 283°
2026-04-26 14:22 49.28384 -2.41199 34232 ft 412 kts 282°
2026-04-26 14:23 49.29811 -2.49720 34233 ft 413 kts 282°
2026-04-26 14:23 49.31235 -2.58207 34235 ft 413 kts 282°
2026-04-26 14:24 49.32664 -2.66749 34237 ft 413 kts 282°
2026-04-26 14:24 49.34084 -2.75313 34237 ft 414 kts 282°
2026-04-26 14:25 49.35493 -2.83823 34232 ft 414 kts 282°
2026-04-26 14:25 49.36907 -2.92401 34230 ft 414 kts 281°
2026-04-26 14:26 49.38317 -3.00990 34227 ft 414 kts 281°
2026-04-26 14:26 49.39709 -3.09551 34234 ft 415 kts 281°
2026-04-26 14:27 49.41102 -3.18169 34238 ft 415 kts 281°
2026-04-26 14:27 49.42494 -3.26802 34235 ft 416 kts 281°
2026-04-26 14:28 49.43872 -3.35388 34235 ft 416 kts 281°
2026-04-26 14:28 49.45256 -3.44043 34236 ft 416 kts 281°
2026-04-26 14:28 49.45946 -3.48381 34083 ft 418 kts 281°
2026-04-26 14:29 49.46638 -3.52758 33021 ft 425 kts 281°
2026-04-26 14:29 49.47333 -3.57151 32623 ft 417 kts 281°
2026-04-26 14:29 49.48009 -3.61406 32101 ft 412 kts 280°
2026-04-26 14:29 49.48683 -3.65666 31587 ft 408 kts 280°
2026-04-26 14:30 49.49347 -3.69890 31084 ft 404 kts 280°
2026-04-26 14:30 49.50006 -3.74090 30573 ft 400 kts 280°
2026-04-26 14:30 49.50656 -3.78246 30058 ft 397 kts 280°
2026-04-26 14:30 49.51288 -3.82314 29557 ft 392 kts 280°
2026-04-26 14:31 49.51916 -3.86375 29082 ft 387 kts 280°
2026-04-26 14:31 49.52535 -3.90387 28612 ft 382 kts 280°
2026-04-26 14:31 49.53145 -3.94354 28160 ft 378 kts 280°
2026-04-26 14:31 49.53740 -3.98237 27718 ft 374 kts 280°
2026-04-26 14:32 49.54338 -4.02131 27280 ft 370 kts 280°
2026-04-26 14:32 49.54930 -4.05976 26858 ft 367 kts 279°
2026-04-26 14:32 49.55514 -4.09790 26431 ft 364 kts 279°
2026-04-26 14:32 49.56089 -4.13563 26017 ft 360 kts 279°
2026-04-26 14:33 49.56651 -4.17263 25612 ft 357 kts 279°
2026-04-26 14:33 49.57214 -4.20976 25195 ft 354 kts 279°
2026-04-26 14:33 49.57772 -4.24661 24778 ft 352 kts 279°
2026-04-26 14:33 49.58413 -4.28293 24359 ft 352 kts 287°
2026-04-26 14:34 49.59500 -4.31687 23905 ft 355 kts 299°
2026-04-26 14:34 49.61056 -4.34682 23398 ft 360 kts 311°
2026-04-26 14:34 49.63006 -4.37112 22930 ft 362 kts 322°
2026-04-26 14:34 49.65099 -4.39258 22460 ft 360 kts 322°
2026-04-26 14:35 49.67178 -4.41404 22000 ft 359 kts 322°
2026-04-26 14:35 49.69227 -4.43525 21525 ft 358 kts 322°
2026-04-26 14:35 49.71317 -4.45697 21061 ft 357 kts 322°
2026-04-26 14:35 49.73350 -4.47813 20594 ft 356 kts 322°
2026-04-26 14:36 49.75408 -4.49955 20121 ft 356 kts 322°
2026-04-26 14:36 49.77467 -4.52096 19671 ft 355 kts 322°
2026-04-26 14:36 49.79521 -4.54237 19196 ft 355 kts 322°
2026-04-26 14:36 49.81574 -4.56381 18640 ft 357 kts 322°
2026-04-26 14:37 49.83649 -4.58556 17634 ft 371 kts 322°
2026-04-26 14:37 49.85794 -4.60799 17222 ft 367 kts 322°
2026-04-26 14:37 49.87896 -4.62988 16820 ft 363 kts 323°
2026-04-26 14:37 49.89994 -4.65175 16287 ft 362 kts 323°
2026-04-26 14:38 49.92091 -4.67371 15683 ft 364 kts 323°
2026-04-26 14:38 49.94162 -4.69549 15237 ft 362 kts 323°
2026-04-26 14:38 49.96242 -4.71740 14796 ft 359 kts 323°
2026-04-26 14:38 49.98305 -4.73913 14355 ft 357 kts 323°
2026-04-26 14:39 50.00355 -4.76074 13891 ft 354 kts 323°
2026-04-26 14:39 50.02364 -4.78194 13440 ft 352 kts 323°
2026-04-26 14:39 50.04392 -4.80335 12993 ft 350 kts 323°
2026-04-26 14:39 50.06399 -4.82457 12549 ft 348 kts 323°
2026-04-26 14:40 50.08405 -4.84581 12101 ft 346 kts 323°
2026-04-26 14:40 50.10397 -4.86690 11657 ft 345 kts 323°
2026-04-26 14:40 50.12349 -4.88755 11213 ft 343 kts 323°
2026-04-26 14:40 50.14325 -4.90841 10758 ft 342 kts 323°
2026-04-26 14:41 50.16284 -4.92912 10465 ft 334 kts 323°
2026-04-26 14:41 50.18176 -4.94914 10326 ft 321 kts 323°
2026-04-26 14:41 50.19975 -4.96822 10193 ft 310 kts 323°
2026-04-26 14:41 50.21731 -4.98691 10039 ft 300 kts 323°
2026-04-26 14:42 50.23439 -5.00514 9737 ft 294 kts 323°
2026-04-26 14:42 50.25115 -5.02306 9195 ft 290 kts 323°
2026-04-26 14:42 50.26782 -5.04091 8632 ft 287 kts 323°
2026-04-26 14:42 50.28409 -5.05834 8090 ft 287 kts 323°
2026-04-26 14:43 50.30056 -5.07600 7639 ft 285 kts 323°
2026-04-26 14:43 50.31668 -5.09325 7268 ft 275 kts 323°
2026-04-26 14:43 50.33227 -5.10996 6905 ft 265 kts 323°
2026-04-26 14:43 50.34705 -5.12583 6546 ft 256 kts 323°
2026-04-26 14:44 50.36149 -5.14130 6208 ft 245 kts 323°
2026-04-26 14:44 50.37539 -5.15618 5901 ft 241 kts 323°
2026-04-26 14:44 50.38922 -5.17103 5585 ft 239 kts 323°
2026-04-26 14:44 50.40284 -5.18571 5266 ft 237 kts 323°
2026-04-26 14:45 50.41622 -5.20014 4955 ft 234 kts 323°
2026-04-26 14:45 50.42515 -5.20975 4710 ft 234 kts 323°
2026-04-26 14:45 50.44320 -5.22917 4206 ft 235 kts 324°
2026-04-26 14:45 50.45704 -5.24291 3821 ft 237 kts 336°
2026-04-26 14:46 50.47307 -5.24798 3473 ft 235 kts
2026-04-26 14:46 50.48860 -5.24165 3218 ft 229 kts 30°
2026-04-26 14:46 50.50061 -5.22612 2917 ft 218 kts 56°
2026-04-26 14:46 50.50703 -5.20593 2670 ft 203 kts 78°
2026-04-26 14:47 50.50805 -5.18447 2464 ft 194 kts 99°
2026-04-26 14:47 50.50415 -5.16451 2260 ft 190 kts 120°
2026-04-26 14:47 50.49755 -5.14681 2121 ft 182 kts 121°
2026-04-26 14:47 50.49139 -5.13040 1993 ft 170 kts 121°
2026-04-26 14:48 50.48550 -5.11469 1768 ft 162 kts 121°
2026-04-26 14:48 50.47999 -5.09988 1554 ft 152 kts 121°
2026-04-26 14:48 50.47483 -5.08610 1454 ft 144 kts 120°
2026-04-26 14:48 50.46983 -5.07273 1223 ft 141 kts 120°
2026-04-26 14:49 50.46486 -5.05951 1045 ft 141 kts 118°
2026-04-26 14:49 50.45985 -5.04617 834 ft 141 kts 119°
2026-04-26 14:49 50.45486 -5.03287 667 ft 141 kts 120°
2026-04-26 14:49 50.44989 -5.01965 470 ft 139 kts 120°
2026-04-26 14:50 50.44500 -5.00664 326 ft 133 kts 121°
2026-04-26 14:50 50.44131 -4.99689 346 ft 64 kts 122°
2026-04-26 14:50 50.44086 -4.99502 352 ft 7 kts 39°
2026-04-26 14:50 50.44131 -4.99495 352 ft 6 kts
2026-04-26 14:51 50.44175 -4.99491 351 ft 6 kts
2026-04-26 14:51 50.44236 -4.99484 352 ft 10 kts
2026-04-26 14:51 50.44283 -4.99540 351 ft 10 kts 292°
2026-04-26 14:51 50.44318 -4.99638 352 ft 11 kts 301°
2026-04-26 14:52 50.44360 -4.99747 353 ft 12 kts 301°
2026-04-26 14:52 50.44406 -4.99868 338 ft 13 kts 300°
2026-04-26 14:52 50.44456 -4.99999 335 ft 14 kts 300°
2026-04-26 14:52 50.44508 -5.00141 334 ft 15 kts 300°
2026-04-26 14:53 50.44564 -5.00291 328 ft 16 kts 298°
2026-04-26 14:53 50.44596 -5.00382 327 ft 1 kts 300°
2026-04-26 14:53 50.44602 -5.00397 327 ft 0 kts 301°
2026-04-26 14:53 50.44605 -5.00404 324 ft 2 kts 302°
2026-04-26 14:54 50.44614 -5.00427 327 ft 4 kts 303°
2026-04-26 14:54 50.44638 -5.00443 323 ft 4 kts 355°
2026-04-26 14:54 50.44653 -5.00423 323 ft 2 kts 68°
2026-04-26 14:54 50.44652 -5.00407 325 ft 2 kts 97°
2026-04-26 14:55 50.44646 -5.00386 327 ft 2 kts 118°
2026-04-26 14:55 50.44639 -5.00367 324 ft 2 kts 121°
2026-04-26 14:55 50.44637 -5.00362 325 ft 0 kts 121°
2026-04-26 14:55 50.44634 -5.00356 325 ft 0 kts 122°